Location: *
(47.6569°N, 7.4256°E)
Time: 09:23:53
(UTC+00:00)

Cosmos 2344 - Pass Details

Date: 14 December 2019
Orbit: 1256 x 2986 km, 63.3° (Epoch: 26 January)

Event Time Altitude Azimuth Distance (km) Brightness Sun altitude
Rises 18:46:28 0° 318° (NW) 4,638 7.0 -30.5°
Reaches altitude 10° 18:49:06 10° 318° (NW) 3,798 6.5 -30.9°
Maximum altitude 18:58:46 85° 233° (SW) 1,975 4.4 -32.5°
Enters shadow 19:05:34 34° 147° (SSE) 3,248 5.3 -33.7°
